Home > Weather > Yarmouth County > Past weeks

Flag for Canada Past Weather in Yarmouth County, Nova Scotia, Canada — Yesterday and Last 2 Weeks

Now
59 °F

Clear.


Feels Like: 58 °F
Forecast: 56 / 70 °F
Wind: 8 mph from Northwest

Location: Yarmouth

Current Time: Aug 30, 2016 at 2:21:53 AM

Latest Report: Aug 30, 2016 at 1:00 AM


Visibility: 15 mi

Pressure: 30.05 "Hg

Humidity: 82%

Dew Point: 54 °F

Location of Yarmouth CountyLocation

Past Weather in Yarmouth County — Graph

°F

Yarmouth County Temperature Yesterday

Maximum temperature yesterday: 70 °F (at 4:00 PM)
Minimum temperature yesterday: 59 °F (at 3:00 AM)
Average temperature yesterday: 63 °F

High & Low Weather Summary for the Past Weeks

 TemperatureHumidityPressure
High79 °F (Aug 21, 1:00 PM)100% (Aug 15, 1:00 AM)30.32 "Hg (Aug 15, 1:00 AM)
Low54 °F (Aug 20, 6:00 AM)47% (Aug 28, 12:00 PM)29.74 "Hg (Aug 17, 2:00 PM)
Average65 °F89%30.03 "Hg
* Reported Aug 15 1:00 AM — Aug 30 1:00 AM, Yarmouth County, Weather by CustomWeather, © 2016

Note: Actual official high and low records may vary slightly from our data, if they occured in-between our weather recording intervals... More about our weather records

Advertising

Yarmouth County Weather History for the Previous 24 Hours

Scroll right to see more
 ConditionsComfort  
Time TempWeatherWind HumidityBarometerVisibility
1:00 AM
Tue, Aug 30
59 °FClear.8 mph82%30.05 "Hg15 mi
12:00 AM59 °FClear.9 mph82%30.03 "Hg15 mi
11:00 PM
Mon, Aug 29
61 °FClear.14 mph83%30.02 "Hg15 mi
10:00 PM59 °FClear.9 mph88%30.00 "Hg15 mi
9:00 PM63 °FPassing clouds.12 mph83%29.97 "Hg15 mi
8:00 PM64 °FPassing clouds.10 mph73%29.94 "Hg15 mi
7:00 PM66 °FPassing clouds.14 mph73%29.93 "Hg15 mi
6:00 PM68 °FPassing clouds.17 mph78%29.91 "Hg15 mi
5:00 PM68 °FScattered clouds.16 mph83%29.90 "Hg12 mi
4:00 PM70 °FBroken clouds.14 mph83%29.91 "Hg10 mi
3:00 PM68 °FPartly sunny.16 mph88%29.91 "Hg10 mi
2:00 PM68 °FMostly cloudy.17 mph88%29.92 "Hg8 mi
1:00 PM64 °FLow clouds.16 mph94%29.94 "Hg8 mi
12:00 PM64 °FLow clouds.20 mph100%29.95 "Hg8 mi
11:00 AM64 °FLow clouds.16 mph100%29.98 "Hg8 mi
10:00 AM63 °FMore clouds than sun.13 mph100%30.01 "Hg12 mi
9:00 AM63 °FMostly cloudy.12 mph94%30.03 "Hg12 mi
8:00 AM63 °FFog.13 mph94%30.04 "Hg5 mi
7:00 AM61 °FFog.9 mph100%30.06 "Hg5 mi
6:50 AM61 °FFog.9 mph100%30.07 "Hg5 mi
6:00 AM61 °FOvercast.10 mph100%30.09 "Hg9 mi
5:00 AM59 °FFog.8 mph100%30.11 "Hg2 mi
4:00 AM61 °FFog.9 mph100%30.13 "Hg0 mi
3:00 AM59 °FFog.8 mph100%30.14 "Hg0 mi
2:00 AM61 °FFog.9 mph100%30.14 "Hg0 mi
Weather by CustomWeather, © 2016

See weather overviewHow to use our weather pages